Regional Weather Roundup
Issued by NWS Sterling, VA

Home | Current Version | Previous Version | Graphics & Text | Print | Product List | Glossary On
Versions: 1 2 3 4 5 6 7 8 9 10 11 12 13 14 15 16 17 18 19 20 21 22 23 24 25 26 27 28 29 30 31 32 33 34 35 36 37 38 39 40 41 42 43 44 45 46 47 48 49 50
000
ASUS41 KLWX 282310
RWRLWX

REGIONAL WEATHER ROUNDUP
NATIONAL WEATHER SERVICE BALTIMORE MD/WASHINGTON DC
700 PM EDT MON JUL 28 2014

Note: "FAIR" indicates few or no clouds below 12,000 feet
with no significant weather and/or obstructions to visibility.
 TC=TEMPERATURE CELSIUS

 * =Non NWS site. Station does not report precipitation (e.g. rain,
    snow, etc.), thunder, or fog.

DCZ001-MDZ009-015-VAZ040>042-051-053>054-290000-
WASHINGTON METRO
  /KDAA//-FT BELVOIR

CITY           SKY/WX    TMP DP  RH WIND       PRES   REMARKS
WASHINGTON NAT MOSUNNY   82  56  40 NW22G29   29.73R
DULLES         PTSUNNY   75  56  51 W13G24    29.74R
ANDREWS AFB    MOSUNNY   80  57  45 NW20G31   29.72R
QUANTICO       PTSUNNY   81  56  42 NW21G31   29.75R
COLLEGE PARK*  SUNNY     81  55  41 W14       29.71S
LEESBURG*      CLOUDY    75  61  60 NW14G21   29.76S
MANASSAS*      PTSUNNY   77  57  50 NW14      29.75R
GAITHERSBURG*  PTSUNNY   73  57  56 W12G23    29.77R

$$

MDZ006>007-011-014-290000-
BALTIMORE METRO

CITY           SKY/WX    TMP DP  RH WIND       PRES   REMARKS
BWI AIRPORT    PTSUNNY   79  58  48 W10G25    29.69R
MD SCIENCE CTR   N/A     79  57  46 MISG      29.70R
MARTIN STATE   MOSUNNY   81  61  50 W13G22    29.70R
ANNAPOLIS      SUNNY     80  57  45 W14G24    29.70R
FORT MEADE*    MOSUNNY   75  57  53 W16G25    29.74R

$$

MDZ012-015-019>023-290000-
MARYLAND EASTERN SHORE

CITY           SKY/WX    TMP DP  RH WIND       PRES   REMARKS
OCEAN CITY     MOSUNNY   81  59  47 W8        29.69R
SALISBURY      NOT AVBL
BAY BRIDGE AP*   N/A     81  55  41 W15G24    29.69R
CAMBRIDGE*     MOSUNNY   79  55  44 W6        29.70R
EASTON*        PTSUNNY   82  59  44 NW9G20    29.73R

$$

MDZ017>025-290000-
SOUTHERN MARYLAND

CITY           SKY/WX    TMP DP  RH WIND       PRES   REMARKS
PATUXENT RIVER PTSUNNY   81  57  43 W13       29.71R
ST INIGOES     MOSUNNY   82  58  43 W10       29.71R
LEONARDTOWN*   PTSUNNY   81  55  41 W12       29.73S

$$

MDZ003>005-290000-
NORTH CENTRAL MARYLAND

CITY           SKY/WX    TMP DP  RH WIND       PRES   REMARKS
FREDERICK*     PTSUNNY   75  63  64 W10       29.75R
HAGERSTOWN APT LGT RAIN  69  61  75 NW17      29.76R
WESTMINSTER*   PTSUNNY   75  61  60 W15G21    29.73R

$$

MDZ501>502-290000-
WESTERN MARYLAND

CITY           SKY/WX    TMP DP  RH WIND       PRES   REMARKS
OAKLAND*       FOG       54 N/A N/A NW12G18   29.92R VSB 1/4
CUMBERLAND*    PTSUNNY   70  59  68 NW8       29.86R

$$

VAZ025>031-290000-
SHENANDOAH VALLEY

CITY           SKY/WX    TMP DP  RH WIND       PRES   REMARKS
WINCHESTER*    CLOUDY    72  57  60 NW16G23   29.80R
STAUNTON*      CLOUDY    73  53  50 NW13G18   29.86R

$$

WVZ021-048>050-054>055-290000-
EASTERN WEST VIRGINIA PANHANDLE

CITY           SKY/WX    TMP DP  RH WIND       PRES   REMARKS
MARTINSBURG    MOSUNNY   72  57  59 W18G26    29.78R
PETERSBURG*    CLOUDY    69  54  57 W12       29.85S

$$

VAZ036>039-050-290000-
CENTRAL FOOTHILLS

CITY           SKY/WX    TMP DP  RH WIND       PRES   REMARKS
CHARLOTTESVILL MOSUNNY   76  56  49 NW9       29.80R
ORANGE*        MOSUNNY   77  55  47 W13       29.80R

$$

VAZ055>057-290000-
NORTH AND CENTRAL PIEDMONT

CITY           SKY/WX    TMP DP  RH WIND       PRES   REMARKS
FREDERICKSBRG* SUNNY     82  56  40 NW13G22   29.75R
STAFFORD*      SUNNY     79  56  45 W13G18    29.80R

$$

NCZ024-NYZ072-PAZ021-071-VAZ022-071-290000-
OTHER REGIONAL OBSERVATIONS

CITY           SKY/WX    TMP DP  RH WIND       PRES   REMARKS
NEW YORK CITY  PTSUNNY   80  57  45 W12G29    29.60R
PHILADELPHIA   MOSUNNY   82  57  42 W17G30    29.64R
PITTSBURGH     CLOUDY    63  56  78 NW16      29.90S
ROANOKE        PTSUNNY   75  55  49 NW17      29.89R
RICHMOND       MOSUNNY   84  55  36 W16G28    29.75R
RALEIGH        MOSUNNY   83  58  42 VRB7      29.81R

$$

ANZ530>537-290000-
MARINE OBSERVATIONS

STATION/POSITION TIME  TEMP    WIND        PRES
                       AIR SEA DIR/SP/G
                 (UTC) (F)     (DEG/KT/KT) (MB)
THOMAS PT LIGHT  2300   80 79  280/ 18/ 21 1006.1R
BALT KEY BRIDGE  2300   79     250/ 19/ 24 1005.2F
COVE POINT       2300   80     320/  6/ 11 1005.8S
LEWISETTA        2300   83 81  300/ 10/ 14 1006.1R
SOLOMONS ISLAND  2300      81                N/A
PINEY POINT      2300          300/ 17/ 20   N/A

$$




USA.gov is the U.S. government's official web portal to all federal, state and local government web resources and services.